This is the latest recevied weather packets stored in our database for station/object WA2TQI. If no packets are shown the sender has not sent any weather packets the latest 10 day(s).
| Time | Temp. | Humidity | Pressure | Rain* | Wind** | Luminosity | Snow |
|---|---|---|---|---|---|---|---|
| 1777637102 | 10.56° C | 81% | 1015.6 hPa | 0 mm | - | - | - |
| 1777636797 | 10° C | 81% | 1015.6 hPa | 0 mm | - | - | - |
| 1777636190 | 10° C | 84% | 1015.7 hPa | 0 mm | - | - | - |
| 1777635885 | 9.44° C | 84% | 1015.6 hPa | 0 mm | - | - | - |
| 1777635581 | 9.44° C | 84% | 1015.6 hPa | 0 mm | - | - | - |
| 1777635278 | 9.44° C | 87% | 1015.4 hPa | 0 mm | - | - | - |
| 1777634974 | 8.89° C | 88% | 1015.5 hPa | 0 mm | - | - | - |
| 1777634672 | 8.33° C | 90% | 1015.5 hPa | 0 mm | - | - | - |
| 1777634370 | 8.33° C | 91% | 1015.5 hPa | 0 mm | - | - | - |
| 1777634066 | 7.78° C | 93% | 1015.4 hPa | 0 mm | - | - | - |
| 1777633762 | 7.78° C | 94% | 1015.4 hPa | 0 mm | - | - | - |
| 1777633460 | 7.22° C | 95% | 1015.4 hPa | 0 mm | - | - | - |
| 1777633158 | 6.67° C | 98% | 1015.4 hPa | 0 mm | - | - | - |
| 1777632550 | 6.11° C | 99% | 1015.4 hPa | 0 mm | - | - | - |
| 1777631945 | 6.11° C | 98% | 1015.2 hPa | 0 mm | - | - | - |
| 1777631643 | 6.11° C | 98% | 1015.2 hPa | 0 mm | - | - | - |
| 1777631340 | 6.11° C | 98% | 1015.3 hPa | 0 mm | - | - | - |
| 1777631036 | 6.11° C | 98% | 1015.3 hPa | 0 mm | - | - | - |
| 1777630733 | 6.11° C | 98% | 1015.2 hPa | 0 mm | - | - | - |
| 1777630430 | 6.11° C | 98% | 1015.2 hPa | 0 mm | - | - | - |
| 1777630127 | 6.11° C | 97% | 1015 hPa | 0 mm | - | - | - |
| 1777629825 | 6.67° C | 97% | 1015.2 hPa | 0 mm | - | - | - |
| 1777629522 | 6.67° C | 96% | 1014.9 hPa | 0 mm | - | - | - |
| 1777629218 | 6.67° C | 96% | 1014.9 hPa | 0 mm | - | - | - |
| 1777628913 | 6.67° C | 97% | 1014.9 hPa | 0 mm | - | - | - |
* Rain latest hour (hover to see other rain measurements)
** Current wind speed in m/s (hover to see current wind gust speed)